User: anonymous   Login
Location: ??????
(38.0131°N, 23.7723°E)
Time: 10:14:23
(UTC+00:00)
Language:

COSMOS 1275 DEB - Orbit

View from above orbital plane
View from above orbital plane
View from above satellite
View from above satellite

Ground track
Ground track

The orbit data is extracted from the following two-line orbital elements,

1 42159U 81053RX  22219.91079836 -.00000002  00000-0 -16808-4 0  9998
2 42159  82.8244  75.1067 0068138  80.0851 280.7990 13.79144237900347
Epoch (UTC): 07 August 2022 21:51:32
Eccentricity: 0.0068138
inclination: 82.8244°
perigee height: 917 km
apogee height: 1017 km
right ascension of ascending node: 75.1067°
argument of perigee: 80.0851°
revolutions per day: 13.79144237
mean anomaly at epoch: 280.7990°
orbit number at epoch: 90034

The dashed part of the orbit path shows where the satellite is in the earth's shadow,  

DLR